User: anonymous   Login
Location: Unspecified
(0.0000°N, 0.0000°E)
Time: 23:11:18
(UTC+02:00)
Language:

NOSS 3-3 (A) - Orbit

View from above orbital plane
View from above orbital plane
View from above satellite
View from above satellite

Ground track
Ground track

The orbit data is extracted from the following two-line orbital elements,

1 28537U 05004A   16202.05344650 0.00000000  00000-0  00000-0 0    05
2 28537  63.4284 314.8249 0236000 357.9734   2.0266 13.40709085    07
Epoch (UTC): 20 July 2016 01:16:57
Eccentricity: 0.0236000
inclination: 63.4284°
perigee height: 930 km
apogee height: 1283 km
right ascension of ascending node: 314.8249°
argument of perigee: 357.9734°
revolutions per day: 13.40709085
mean anomaly at epoch: 2.0266°
orbit number at epoch: 0

The dashed part of the orbit path shows where the satellite is in the earth's shadow,  

DLR